Location: Coopersdale
(40.3556°N, 78.9372°W)
Time: 07:24:57
(UTC+00:00)

Tiros 1 - Pass Details

Date: 27 January 2021
Orbit: 630 x 664 km, 48.4° (Epoch: 05 March)

Event Time Altitude Azimuth Distance (km) Brightness Sun altitude
Rises 01:18:48 0° 291° (WNW) 2,924 11.5 -32.7°
Reaches altitude 10° 01:21:22 10° 302° (WNW) 2,012 10.3 -33.1°
Enters shadow 01:22:57 19° 316° (NW) 1,522 9.4 -33.4°
